Location: Clair
(33.8067°N, 117.9845°W)
Time: 07:59:52
(UTC+00:00)

CBERS-1 - Pass Details

Date: 14 February 2026
Orbit: 766 x 771 km, 98.9° (Epoch: 12 March)

Event Time Altitude Azimuth Distance (km) Brightness Sun altitude
Rises 13:56:30 0° 13° (NNE) 3,246 7.3 -9.1°
Reaches altitude 10° 13:58:49 10° 13° (NNE) 2,317 6.5 -8.6°
Maximum altitude 14:03:56 90° 85° (E) 775 4.1 -7.6°
Drops below altitude 10° 14:09:02 10° 194° (SSW) 2,305 6.5 -6.5°
Sets 14:11:19 0° 195° (SSW) 3,228 7.2 -6.1°
